This is the latest recevied weather packets stored in our database for station/object KE5VBO-1. If no packets are shown the sender has not sent any weather packets the latest 10 day(s).
| Time | Temp. | Humidity | Pressure | Rain* | Wind** | Luminosity | Snow |
|---|---|---|---|---|---|---|---|
| 1777462216 | 15° C | 1% | 1012.7 hPa | 0 mm | - | - | - |
| 1777461359 | 15.56° C | 1% | 1012.5 hPa | 0 mm | - | - | - |
| 1777460427 | 15.56° C | 1% | 1012.8 hPa | 0 mm | - | - | - |
| 1777459559 | 15.56° C | 1% | 1012.9 hPa | 0 mm | - | - | - |
| 1777458610 | 15.56° C | 1% | 1012.7 hPa | 0 mm | - | - | - |
| 1777457746 | 15.56° C | 1% | 1012.5 hPa | 0 mm | - | - | - |
| 1777456815 | 16.11° C | 1% | 1012.2 hPa | 0 mm | - | - | - |
| 1777455949 | 16.11° C | 1% | 1012.3 hPa | 0 mm | - | - | - |
| 1777455012 | 16.11° C | 1% | 1012 hPa | 0 mm | - | - | - |
| 1777454152 | 16.11° C | 1% | 1011.8 hPa | 0 mm | - | - | - |
| 1777453220 | 16.67° C | 1% | 1011.9 hPa | 0 mm | - | - | - |
| 1777452355 | 16.67° C | 1% | 1011.7 hPa | 0 mm | - | - | - |
| 1777451421 | 16.67° C | 1% | 1011.2 hPa | 0 mm | - | - | - |
| 1777450543 | 17.22° C | 1% | 1011.1 hPa | 0 mm | - | - | - |
| 1777449609 | 17.78° C | 1% | 1010.9 hPa | 0 mm | - | - | - |
| 1777448750 | 17.78° C | 1% | 1010.9 hPa | 0 mm | - | - | - |
| 1777447810 | 17.78° C | 1% | 1011.3 hPa | 0 mm | - | - | - |
| 1777446949 | 18.33° C | 1% | 1011.7 hPa | 0 mm | - | - | - |
| 1777446018 | 18.33° C | 1% | 1011.9 hPa | 0 mm | - | - | - |
| 1777445159 | 18.33° C | 1% | 1011.7 hPa | 0 mm | - | - | - |
| 1777444222 | 18.33° C | 1% | 1011.6 hPa | 0 mm | - | - | - |
| 1777443364 | 18.89° C | 1% | 1011.9 hPa | 0 mm | - | - | - |
| 1777442426 | 18.89° C | 1% | 1012 hPa | 0 mm | - | - | - |
| 1777441559 | 18.89° C | 1% | 1012 hPa | 0 mm | - | - | - |
| 1777440626 | 19.44° C | 1% | 1012.2 hPa | 0 mm | - | - | - |
* Rain latest hour (hover to see other rain measurements)
** Current wind speed in m/s (hover to see current wind gust speed)